Temperature
19 21 21 23 22 20 20 19 19 19 19 20 19 19 19 19 19 19 19 19 20 20 19 19 19 18 18 18 18 17 17 17 17 17 17 17 16 16 16 16 16 16 16 15
21 21 22 23 22 21 21 20 20 21 20 19 19 20 19 19 19 19 19 20 20 20 19 19 19 18 18 18 18 17 17 17 17 17 16 16 16 16 16 16 16 16 15 15
19 20 22 21 22 21 21 21 20 21 21 19 18 18 19 19 19 20 20 20 20 20 20 19 19 19 18 18 18 17 17 17 17 16 16 16 16 16 16 16 15 15 15 15
16 20 21 20 20 21 21 20 19 20 19 18 18 19 20 20 20 20 20 20 20 20 19 19 19 18 18 18 17 17 17 17 16 16 16 16 16 16 15 15 15 15 15 15
15 18 19 20 20 20 21 21 19 19 18 18 18 18 18 20 21 21 21 21 21 20 19 19 18 18 18 17 17 17 16 16 16 16 16 16 15 15 15 15 15 14 14 14
15 18 19 20 20 20 20 20 19 18 17 17 18 18 18 20 20 20 20 20 20 19 19 18 18 18 17 17 17 16 16 16 16 15 15 15 15 15 15 14 14 14 14 14
15 17 17 17 17 19 20 20 19 18 18 18 18 19 20 20 20 20 20 20 19 19 19 18 18 17 17 17 16 16 16 15 15 15 15 15 14 14 14 14 14 13 13 13
14 16 17 17 17 18 18 18 18 18 19 19 19 19 20 20 20 19 19 19 19 18 18 18 17 17 17 16 16 15 15 15 15 15 14 14 14 14 13 13 13 13 13 12
13 14 15 15 15 17 17 17 18 19 19 19 18 18 19 19 19 19 18 18 18 18 17 17 16 16 16 16 15 15 15 15 14 14 14 14 13 13 13 12 12 12 12 12
13 14 14 15 16 17 17 18 19 19 19 19 18 18 18 18 17 17 17 17 17 17 16 16 16 16 16 15 15 15 14 14 14 14 13 13 13 12 12 12 12 12 12 11
13 13 14 16 16 16 17 18 18 18 18 18 18 18 18 17 17 17 17 17 16 16 16 16 15 15 15 15 14 14 14 13 13 13 13 12 12 12 12 12 12 12 11 11
12 13 13 14 15 16 17 17 17 17 17 17 18 18 17 17 17 16 16 16 16 15 15 15 15 15 14 14 14 14 14 13 13 12 12 12 12 11 11 11 11 11 10 10
14 14 14 15 15 16 16 16 17 17 17 17 17 17 16 16 15 15 15 15 15 15 14 14 14 14 13 13 13 13 13 13 12 12 12 11 11 11 10 10 10 10 9 9
14 14 14 15 15 15 15 15 16 16 16 16 16 16 16 15 15 15 15 14 14 14 13 13 13 13 13 12 12 12 12 12 12 11 11 11 10 10 10 10 9 9 9 8
14 14 14 15 15 15 15 15 15 15 15 15 15 15 15 15 14 14 14 13 13 13 13 12 12 12 12 12 11 11 11 11 11 11 10 10 10 9 9 9 9 8 8 7
14 14 14 14 14 15 14 15 15 14 14 14 14 14 14 14 13 13 13 12 12 12 12 12 12 11 11 11 11 11 10 10 10 10 10 9 9 9 8 8 8 7 7 7
13 13 13 14 14 14 14 14 14 14 14 14 14 13 13 13 12 12 12 12 11 11 11 11 11 11 11 10 10 10 10 10 9 9 9 9 9 8 8 8 7 7 7 6
13 14 14 14 14 14 14 14 14 13 13 13 13 13 12 12 12 12 11 11 10 10 10 10 10 10 10 10 9 9 9 9 9 9 8 8 8 8 7 7 7 7 6 6
13 13 13 13 13 14 14 13 13 13 12 12 12 12 12 11 11 10 10 10 10 10 9 9 9 9 9 9 9 9 8 8 8 8 8 8 7 7 7 7 6 6 6 6
13 13 13 13 13 13 13 13 12 12 12 12 11 11 11 10 10 10 10 10 9 9 9 9 9 9 9 8 8 8 8 8 8 7 7 7 7 7 6 6 6 6 6 6
12 12 12 12 12 12 12 12 12 12 11 11 11 11 10 10 9 9 9 9 9 9 9 9 9 8 8 8 8 8 7 7 7 7 7 7 7 6 6 6 6 6 6 6
11 11 11 11 11 11 11 11 11 11 11 10 10 10 10 9 9 9 8 8 8 8 8 8 8 8 8 8 8 7 7 7 7 7 7 7 7 7 6 6 6 6 6 6
10 10 10 10 10 10 10 10 10 10 10 10 10 9 9 9 9 9 8 8 8 8 8 8 8 8 8 8 8 7 7 7 7 7 7 7 7 7 7 6 6 6 6 6
9 9 9 10 10 10 10 10 9 9 9 9 9 9 9 9 8 8 8 8 8 8 8 8 8 8 8 8 8 8 8 7 7 7 7 7 7 7 7 6 6 6 6 6
9 9 9 9 9 9 9 9 9 9 9 9 9 9 8 8 8 8 8 8 8 8 8 8 8 8 8 8 8 8 8 8 8 7 7 7 7 7 7 7 6 6 6 6
8 8 8 9 9 9 9 9 9 8 8 8 8 8 8 8 8 8 8 8 8 8 8 8 8 8 8 8 8 8 8 8 8 8 7 7 7 7 7 7 6 6 6 6
8 8 8 8 8 8 8 8 9 8 8 8 8 8 8 8 8 8 8 8 8 8 8 8 8 8 8 8 8 8 8 8 8 7 7 7 7 7 7 7 6 6 6 6
Wind_Speed
7 5 5 5 7 9 8 10 10 10 9 11 11 11 9 9 9 9 8 8 7 7 6 6 6 5 5 4 4 4 5 4 3 2 3 3 2 2 2 3 3 3 3 3
2 3 5 4 5 8 7 6 7 5 8 8 4 5 7 9 11 10 9 9 8 7 7 7 6 6 5 4 4 5 5 4 3 3 4 3 3 3 3 3 3 3 3 3
3 1 3 5 7 7 6 5 8 9 10 4 5 9 11 12 12 12 11 10 9 9 8 7 7 6 6 5 5 6 5 4 4 4 4 3 4 4 4 3 4 4 3 3
2 3 6 9 4 5 5 5 7 7 5 7 8 6 5 7 11 11 11 11 10 8 8 6 6 6 6 6 6 6 5 4 4 4 4 4 4 4 3 3 4 4 4 4
4 4 4 5 1 3 4 4 4 6 4 5 6 5 1 3 7 10 10 9 9 8 7 7 7 7 7 7 6 5 5 4 4 4 5 4 4 4 3 4 4 4 4 5
5 4 7 7 3 2 3 4 3 5 7 8 9 5 5 4 7 7 7 7 8 8 8 8 7 7 7 6 6 5 4 4 4 4 5 4 4 4 4 4 5 5 5 5
5 4 6 5 6 1 5 7 3 5 7 9 7 5 5 8 7 8 8 8 8 9 8 7 7 8 8 6 5 4 5 5 5 5 5 5 4 4 5 5 6 6 6 6
5 4 7 4 3 3 5 3 2 4 6 7 6 7 8 9 9 10 9 8 8 8 6 5 6 8 7 6 4 5 6 6 5 5 4 4 5 5 5 6 6 6 6 6
6 6 4 3 4 6 3 3 2 3 5 9 9 8 9 8 9 9 9 9 8 8 7 5 4 6 7 5 5 6 6 6 5 5 5 4 5 5 5 5 5 5 5 5
2 4 4 5 4 3 1 1 2 4 7 9 10 10 10 9 8 8 7 8 8 8 7 5 4 4 5 5 6 6 6 6 5 5 5 5 4 4 4 4 5 5 5 5
2 4 4 4 4 4 4 4 6 7 6 8 12 11 10 10 9 7 7 6 7 8 7 5 5 5 5 5 6 7 6 6 5 5 5 5 5 4 4 3 3 5 5 5
5 5 3 4 5 3 3 4 6 7 8 7 9 11 10 9 8 8 7 7 7 7 6 6 6 5 4 4 5 7 6 5 4 4 5 5 6 7 11 9 10 8 6 6
4 3 3 4 3 2 2 4 6 7 8 9 8 9 10 8 7 7 7 7 7 6 6 6 6 6 5 4 5 6 6 5 5 5 5 5 6 7 6 8 12 11 10 10
3 1 1 2 1 2 5 6 8 9 8 8 8 9 9 8 7 7 7 6 6 6 6 6 6 5 4 5 5 6 6 6 6 5 5 5 6 6 6 7 6 6 7 10
3 3 3 1 3 5 6 7 9 9 8 8 7 8 8 8 7 6 6 6 7 6 6 6 6 5 4 5 6 6 5 5 5 5 5 5 6 6 6 7 7 6 6 7
2 0 2 4 5 6 6 6 8 7 7 6 7 7 8 8 8 7 6 6 6 6 5 5 5 4 5 6 6 6 5 8 7 6 6 6 6 6 7 7 7 6 6 5
3 3 3 4 4 5 5 4 5 6 6 7 7 7 8 8 8 7 6 5 6 6 5 5 5 5 5 6 6 5 5 7 9 7 5 5 6 6 6 6 6 6 5 4
4 5 5 5 5 6 6 5 6 7 6 7 8 8 7 7 7 6 6 6 7 6 5 5 5 6 6 6 5 5 6 6 5 6 6 6 6 6 6 6 6 6 5 5
1 2 3 4 5 6 6 5 5 6 7 8 8 7 7 6 6 6 6 6 6 5 3 4 7 6 6 6 7 5 6 6 6 6 6 7 6 5 5 5 5 5 5 5
2 3 3 4 5 5 5 5 7 7 7 8 9 8 7 6 6 6 6 5 3 3 4 5 6 6 6 6 7 5 6 7 7 6 6 6 6 5 5 5 5 5 5 5
4 4 5 5 5 5 6 7 7 7 7 8 9 8 8 7 6 6 6 5 3 4 5 7 5 5 5 6 7 5 6 6 6 6 6 5 5 5 5 5 5 5 5 4
3 4 5 6 6 6 6 6 7 8 8 8 8 8 8 7 7 6 4 3 4 5 4 4 4 6 7 7 5 5 5 6 5 5 5 5 5 5 5 5 4 4 4 4
3 4 5 6 7 7 7 7 7 7 7 7 8 8 7 6 5 5 4 3 4 5 4 4 5 7 8 5 5 5 5 5 5 4 4 4 5 4 4 5 4 4 4 4
5 6 6 7 8 9 8 7 7 7 7 7 6 6 7 6 4 3 4 6 6 6 4 5 7 7 6 4 4 4 4 4 4 4 4 4 4 4 4 5 4 4 5 5
6 7 8 8 8 7 7 8 8 8 7 6 6 6 4 4 4 4 4 5 7 6 4 5 6 6 4 4 4 4 4 4 4 4 5 5 5 5 5 5 5 5 5 6
7 7 6 6 6 6 6 6 6 5 5 6 5 4 4 4 5 5 4 5 5 5 3 3 3 3 3 3 3 4 4 4 4 4 4 4 5 5 5 5 6 6 6 6
7 7 6 6 6 5 5 5 5 5 4 5 5 4 4 5 5 5 5 4 3 3 2 2 2 2 2 3 3 3 3 3 3 3 4 4 4 5 5 6 6 6 6 7
Wind_Direction
217 209 181 187 178 169 175 180 183 219 220 237 223 206 192 173 158 154 156 156 155 155 152 143 135 133 131 125 120 121 117 116 123 118 113 118 127 134 135 142 151 150 156 168
231 208 201 208 200 184 194 183 200 213 242 245 212 163 170 169 165 168 170 167 164 156 151 146 143 142 136 123 115 112 112 108 101 102 98 96 98 102 109 115 116 118 128 139
226 268 126 230 212 186 191 192 178 205 229 188 172 186 187 181 177 178 176 171 170 165 160 155 152 149 143 132 120 116 114 109 102 105 103 95 95 94 98 100 103 105 106 106
137 116 198 240 249 188 182 210 207 215 216 191 195 181 166 167 175 174 173 171 169 164 157 152 144 136 132 125 123 121 115 112 107 105 103 99 97 94 91 94 96 97 97 104
126 168 251 294 273 155 172 246 218 199 185 152 126 94 79 182 170 172 173 168 163 158 148 144 142 138 131 128 126 122 122 120 119 118 111 104 100 95 93 97 92 86 87 93
129 152 213 238 292 305 132 264 242 180 173 156 137 152 219 179 149 143 142 144 144 137 130 138 142 135 132 136 135 139 140 131 122 121 120 114 106 97 94 101 100 95 84 83
153 191 249 267 302 4 162 236 231 181 176 167 173 184 155 133 130 128 126 128 131 131 136 143 142 138 139 139 145 147 134 122 116 117 120 118 111 104 104 108 104 98 92 81
147 176 242 314 359 177 229 269 201 171 165 152 133 112 115 123 125 124 121 121 124 123 119 120 136 142 141 144 142 134 129 123 118 116 118 118 117 112 110 115 112 107 101 88
192 212 255 286 259 274 258 233 215 159 150 139 128 120 117 119 120 120 123 124 120 123 119 110 118 137 141 139 130 130 128 125 119 111 106 109 118 119 113 113 117 117 114 108
267 282 301 309 312 328 338 180 130 131 138 135 129 126 121 122 120 120 120 122 122 123 124 120 112 114 125 128 128 128 127 124 119 114 107 100 102 110 118 125 129 128 127 124
281 294 329 338 347 354 26 66 92 100 110 127 126 126 126 126 123 120 115 116 123 127 127 124 116 107 107 120 128 127 124 121 117 114 114 103 90 78 98 95 134 143 145 146
228 240 221 271 304 347 66 88 102 103 98 102 119 123 121 121 121 121 120 118 117 117 120 118 115 108 105 114 127 129 128 126 122 117 115 117 113 88 64 74 81 89 105 125
229 239 225 259 306 8 73 89 95 98 108 108 104 110 110 111 115 117 115 111 114 118 118 116 114 108 105 108 116 123 129 129 124 123 124 124 124 123 110 76 68 73 86 100
236 223 257 246 208 82 88 92 93 90 88 98 104 106 108 108 110 111 110 109 106 106 111 113 111 108 109 110 112 115 118 121 122 123 126 124 123 122 123 122 108 81 68 86
263 222 218 194 111 98 98 104 103 101 98 95 100 105 111 115 114 111 107 107 106 106 110 115 113 109 110 113 114 117 119 119 115 113 115 117 118 119 118 116 115 110 99 83
271 148 136 133 129 110 103 110 115 118 118 112 107 108 108 109 110 108 104 109 118 119 117 115 114 120 120 118 115 112 114 119 117 117 118 118 120 122 121 121 120 119 120 121
176 187 176 163 155 138 135 136 141 137 132 126 121 115 112 109 105 102 95 93 102 103 102 107 113 116 118 118 116 117 117 122 120 117 118 122 124 126 126 125 125 125 122 123
214 208 189 176 171 155 147 143 140 135 131 125 121 119 120 124 126 122 114 106 100 90 83 96 110 114 111 110 110 115 117 118 120 120 120 120 121 122 124 125 129 127 119 114
215 183 179 170 166 156 150 142 132 127 124 126 125 122 118 120 125 124 121 114 110 104 94 105 114 114 112 114 112 111 116 118 116 114 117 119 117 118 122 126 129 130 131 133
86 97 121 132 134 138 138 134 128 125 128 130 126 122 120 120 123 123 116 105 98 114 122 116 113 110 112 120 117 117 121 123 123 122 122 127 128 128 130 132 135 138 141 145
88 95 102 113 113 112 125 133 134 132 131 132 134 135 130 125 125 124 120 109 86 101 112 112 110 115 117 122 119 120 123 126 128 130 134 136 137 137 138 140 145 150 153 154
79 94 101 108 114 109 107 113 121 125 126 127 126 127 126 125 124 113 100 116 125 118 115 114 115 120 126 122 120 124 127 129 131 135 140 145 149 152 154 157 160 162 164 166
87 101 107 112 115 111 105 108 115 120 124 126 129 132 131 131 133 132 126 121 126 123 117 119 124 127 129 126 129 133 138 142 147 154 158 161 163 166 168 170 171 171 173 178
90 96 103 106 106 105 104 102 102 104 105 104 109 118 123 120 105 96 115 129 133 130 126 133 133 136 136 138 141 147 156 161 165 168 169 171 173 174 177 178 181 184 187 191
91 95 97 100 100 102 102 101 96 93 93 93 93 95 101 110 121 125 124 133 137 134 134 143 142 142 143 143 150 159 166 173 176 176 178 179 183 186 189 190 193 195 197 202
85 87 86 88 95 101 103 104 104 103 105 102 93 91 96 99 108 116 121 127 131 131 132 139 149 148 149 154 163 168 171 173 176 181 185 186 188 190 194 200 204 205 206 208
81 82 83 81 77 83 92 97 102 101 105 111 105 98 104 106 109 115 119 122 127 130 130 134 146 159 168 172 173 173 174 177 181 186 190 194 195 198 204 207 210 212 212 213
Height
1479 1476 1476 1476 1479 1486 1489 1494 1502 1497 1494 1482 1476 1476 1478 1481 1484 1487 1490 1493 1495 1498 1501 1504 1506 1509 1511 1513 1514 1515 1516 1517 1518 1519 1520 1521 1522 1523 1523 1524 1525 1526 1527 1529
1477 1474 1474 1475 1474 1479 1480 1483 1486 1485 1485 1473 1472 1475 1477 1480 1482 1486 1489 1492 1495 1498 1501 1503 1506 1509 1511 1512 1514 1515 1516 1517 1518 1519 1520 1520 1521 1522 1522 1523 1524 1525 1526 1527
1487 1477 1476 1484 1474 1475 1475 1474 1477 1481 1474 1470 1472 1472 1473 1477 1480 1483 1486 1490 1494 1497 1500 1503 1505 1508 1510 1512 1513 1515 1516 1517 1518 1519 1519 1520 1521 1521 1522 1522 1523 1524 1524 1526
1490 1485 1494 1479 1465 1465 1468 1468 1468 1467 1466 1466 1466 1468 1471 1474 1477 1481 1485 1489 1493 1497 1500 1503 1505 1508 1510 1511 1513 1514 1515 1516 1517 1518 1519 1520 1520 1521 1522 1522 1523 1523 1524 1525
1495 1493 1485 1472 1464 1465 1468 1468 1464 1464 1464 1466 1467 1470 1473 1474 1476 1480 1484 1488 1492 1496 1500 1503 1505 1507 1509 1510 1512 1513 1515 1516 1517 1518 1518 1519 1520 1520 1521 1522 1522 1523 1523 1524
1492 1490 1492 1475 1463 1462 1465 1470 1462 1462 1463 1465 1467 1474 1472 1472 1476 1480 1485 1489 1493 1496 1499 1502 1504 1506 1508 1509 1511 1512 1514 1515 1516 1517 1518 1518 1519 1520 1520 1521 1522 1522 1523 1524
1488 1487 1481 1468 1463 1462 1476 1471 1460 1460 1460 1462 1464 1465 1467 1471 1475 1480 1484 1488 1492 1495 1498 1501 1503 1505 1507 1508 1510 1512 1513 1514 1515 1516 1517 1518 1518 1519 1520 1520 1521 1522 1522 1523
1488 1488 1484 1465 1463 1466 1465 1459 1458 1458 1459 1461 1463 1464 1467 1471 1475 1479 1483 1488 1491 1494 1497 1500 1502 1504 1506 1507 1509 1510 1511 1513 1514 1515 1516 1517 1517 1518 1519 1520 1520 1521 1522 1523
1480 1478 1469 1465 1464 1461 1460 1458 1457 1457 1459 1461 1463 1466 1468 1472 1475 1479 1483 1487 1491 1494 1497 1499 1501 1503 1504 1506 1507 1509 1510 1511 1512 1513 1514 1515 1516 1517 1518 1519 1519 1520 1521 1522
1474 1469 1466 1464 1462 1460 1458 1457 1457 1458 1459 1461 1463 1466 1469 1473 1477 1480 1483 1486 1489 1493 1495 1498 1500 1502 1503 1505 1506 1507 1508 1510 1511 1512 1513 1514 1515 1516 1517 1518 1519 1520 1521 1522
1473 1468 1465 1463 1462 1461 1459 1458 1458 1459 1461 1463 1465 1468 1470 1474 1477 1481 1484 1486 1489 1491 1494 1496 1498 1500 1502 1503 1504 1506 1507 1508 1509 1511 1512 1513 1514 1515 1516 1517 1518 1519 1520 1522
1472 1467 1467 1465 1463 1462 1461 1460 1461 1462 1463 1466 1467 1469 1472 1475 1478 1481 1484 1486 1489 1491 1494 1496 1497 1499 1501 1502 1503 1504 1505 1506 1508 1509 1510 1511 1513 1514 1515 1516 1518 1519 1520 1521
1467 1465 1465 1465 1464 1463 1462 1462 1463 1464 1466 1467 1470 1471 1473 1477 1479 1482 1484 1486 1488 1491 1493 1495 1496 1498 1499 1501 1502 1503 1504 1505 1506 1508 1509 1510 1512 1513 1514 1516 1517 1518 1520 1521
1465 1465 1464 1464 1464 1464 1464 1464 1464 1466 1469 1470 1472 1473 1475 1478 1481 1482 1484 1486 1489 1491 1493 1494 1496 1498 1499 1500 1502 1502 1503 1505 1506 1507 1508 1510 1511 1513 1514 1515 1516 1518 1520 1522
1463 1463 1463 1463 1463 1464 1465 1466 1466 1468 1470 1472 1473 1475 1477 1479 1481 1483 1485 1487 1489 1491 1493 1494 1496 1497 1498 1500 1501 1502 1503 1504 1505 1507 1508 1510 1511 1512 1514 1515 1517 1518 1520 1522
1461 1461 1462 1462 1463 1464 1466 1467 1467 1469 1471 1473 1475 1476 1478 1480 1482 1484 1486 1488 1490 1492 1493 1494 1495 1497 1498 1499 1500 1501 1502 1504 1505 1507 1508 1510 1511 1513 1514 1516 1518 1519 1521 1523
1460 1460 1461 1462 1463 1464 1466 1468 1469 1470 1472 1474 1476 1477 1479 1481 1483 1484 1487 1488 1490 1492 1493 1494 1495 1496 1497 1499 1500 1501 1503 1504 1506 1507 1509 1510 1512 1513 1515 1517 1519 1520 1523 1525
1458 1459 1460 1461 1463 1464 1466 1468 1470 1471 1473 1475 1476 1478 1480 1481 1483 1485 1487 1489 1490 1492 1493 1494 1496 1497 1498 1499 1500 1502 1503 1505 1506 1508 1510 1511 1513 1515 1517 1518 1520 1522 1524 1527
1455 1457 1458 1460 1462 1464 1466 1468 1470 1471 1473 1475 1477 1479 1480 1482 1484 1486 1488 1489 1491 1492 1494 1495 1496 1497 1498 1500 1501 1503 1505 1506 1508 1509 1511 1513 1514 1516 1518 1520 1522 1524 1526 1528
1453 1455 1457 1459 1461 1464 1465 1467 1470 1472 1474 1476 1477 1479 1481 1483 1486 1487 1489 1490 1492 1493 1495 1496 1497 1499 1500 1501 1503 1505 1506 1508 1509 1511 1512 1514 1516 1518 1520 1522 1524 1526 1528 1530
1453 1455 1456 1458 1461 1463 1465 1468 1470 1472 1474 1476 1478 1480 1482 1484 1486 1488 1490 1491 1493 1494 1496 1498 1499 1500 1502 1503 1505 1507 1508 1510 1511 1513 1514 1516 1518 1520 1522 1524 1526 1528 1530 1531
1454 1455 1457 1458 1461 1463 1465 1468 1470 1472 1474 1476 1478 1481 1483 1485 1487 1489 1491 1493 1494 1496 1498 1499 1501 1502 1504 1506 1507 1509 1510 1512 1514 1515 1517 1519 1521 1522 1524 1526 1527 1529 1531 1533
1455 1456 1458 1460 1462 1463 1466 1468 1471 1473 1475 1477 1479 1482 1484 1486 1488 1490 1492 1494 1496 1498 1500 1502 1503 1505 1507 1508 1510 1511 1513 1514 1516 1518 1519 1521 1523 1524 1526 1527 1529 1530 1532 1534
1456 1457 1459 1461 1463 1465 1468 1470 1472 1475 1477 1479 1481 1484 1486 1488 1490 1492 1494 1496 1498 1501 1503 1505 1506 1508 1509 1511 1512 1514 1515 1517 1518 1520 1521 1523 1524 1526 1527 1528 1530 1531 1533 1534
1458 1460 1462 1464 1466 1468 1470 1473 1475 1478 1480 1482 1484 1486 1488 1490 1492 1494 1496 1499 1501 1503 1505 1507 1509 1511 1512 1513 1514 1516 1517 1518 1520 1521 1522 1524 1525 1526 1527 1529 1530 1531 1532 1533
1462 1463 1465 1467 1469 1471 1473 1476 1478 1481 1483 1485 1487 1489 1491 1493 1495 1497 1499 1501 1503 1506 1508 1509 1511 1512 1514 1515 1516 1517 1519 1520 1521 1522 1523 1524 1525 1526 1527 1528 1529 1530 1531 1532
1466 1468 1470 1471 1473 1475 1477 1480 1482 1484 1486 1488 1490 1492 1494 1496 1498 1500 1502 1504 1506 1507 1509 1511 1512 1514 1515 1516 1517 1518 1519 1520 1521 1522 1523 1523 1524 1525 1526 1527 1527 1528 1529 1530